1381795227534,2.09890
1381795287534,2.13235
1381795347534,2.12453
1381795407534,2.11992
1381795467534,2.11684
1381795527534,2.11115
1381795587534,2.09398
1381795647534,2.11546
1381795707534,2.12409
1381795767534,2.13243
1381795827534,2.10023
1381795887534,2.13336
1381795947534,2.12349
1381796007534,2.12839
1381796067534,2.12555
1381796127534,2.11835
1381796187534,2.09797
1381796247534,2.09199
1381796307534,2.12161
1381796367534,2.10255
1381796427534,2.10151
1381796487534,2.09918
1381796547534,2.09722
1381796607534,2.07627
1381796667534,2.05897
1381796727534,2.08287
1381796787534,2.05854
1381796847534,2.09690
1381796907534,2.08463
1381796967534,2.07761
1381797027534,2.07414
1381797087534,2.05690
1381797147534,2.03810
1381797207534,2.07319
1381797267534,2.06657
1381797327534,2.08476
1381797387534,2.07479
1381797447534,2.08132
1381797507534,2.06967
1381797567534,2.03897
1381797627534,2.05203
1381797687534,2.06155
1381797747534,2.06119
1381797807534,2.07328
1381797867534,2.06749
1381797927534,2.05501
1381797987534,2.04544
1381798047534,2.06430
1381798107534,2.03309
1381798167534,2.04085
1381798227534,2.04709
1381798287534,2.05977
1381798347534,2.04075
1381798407534,2.06340
1381798467534,2.04205
1381798527534,2.04307
1381798587534,2.07487
1381798647534,2.05200
1381798707534,2.04981
1381798767534,2.04435
1381798827544,2.06049
1381798887544,2.04484
1381798947544,2.04320
1381799007544,2.05837
1381799067544,2.05713
1381799127544,2.06694
1381799187544,2.06658
1381799247544,2.04894
1381799307544,2.04632
1381799367544,2.05879
1381799427544,2.03690
1381799487544,2.04409
1381799547544,2.01481
1381799607544,2.04910
1381799667544,2.07614
1381799727544,2.06344
1381799787544,2.05380
1381799847544,2.01983
1381799907544,2.04487
1381799967544,2.03547
1381800027544,2.03292
1381800087544,2.05397
1381800147544,2.05234
1381800207544,2.04699
1381800267544,2.04869
1381800327544,2.03152
1381800387544,2.05546
1381800447544,2.05326
1381800507544,2.03575
1381800567544,2.03883
1381800627544,2.04961
1381800687544,2.05522
1381800747544,2.04439
1381800807544,2.05866
1381800867544,2.04674
1381800927544,2.03572
1381800987544,2.05067
1381801047544,2.05649
1381801107544,2.05665
1381801167544,2.04501
1381801227544,2.04418
1381801287544,2.05949
1381801347544,2.03762
1381801407544,2.03677
1381801467544,2.04267
1381801527544,2.05029
1381801587544,2.04753
1381801647544,2.07142
1381801707544,2.08213
1381801767544,2.05931
1381801827544,2.03917
1381801887544,2.04506
1381801947544,2.09555
1381802007544,2.07079
1381802067544,2.05842
1381802127544,2.05704
1381802187544,2.02916
1381802247544,2.05342
1381802307544,2.06723
1381802367544,2.06713
1381802427554,2.05622
1381802487554,2.04610
1381802547554,2.05259
1381802607554,2.04747
1381802667554,2.04554
1381802727554,2.02856
1381802787554,2.02622
1381802847554,2.04766
1381802907554,2.05241
1381802967554,2.05270
1381803027554,2.05241
1381803087554,2.05129
1381803147554,2.08460
1381803207554,2.03340
1381803267554,2.08845
1381803327554,2.06088
1381803387554,2.07757
1381803447554,2.07204
1381803507554,2.06550
1381803567554,2.05653
1381803627554,2.05493
1381803687554,2.04080
1381803747554,2.06705
1381803807554,2.05281
1381803867554,2.06838
1381803927554,2.07533
1381803987554,2.05978
1381804047554,2.05106
1381804107554,2.06683
1381804167554,2.09199
1381804227554,2.07383
1381804287554,2.07049
1381804347554,2.05713
1381804407554,2.06139
1381804467554,2.08715
1381804527554,2.07568
1381804587554,2.05722
1381804647554,2.09793
1381804707554,2.08536
1381804767554,2.07350
1381804827554,2.06523
1381804887554,2.07990
1381804947554,2.06694
1381805007554,2.04762
1381805067554,2.08343
1381805127554,2.07109
1381805187554,2.08648
1381805247554,2.09267
1381805307554,2.08608
1381805367554,2.06106
1381805427554,2.08818
1381805487554,2.05307
1381805547554,2.08674
1381805607554,2.07647
1381805667554,2.08538
1381805727554,2.07419
1381805787554,2.08361
1381805847554,2.08942
1381805907554,2.06253
1381805967554,2.07127
1381806027563,2.09402
1381806087563,2.09809
1381806147563,2.08051
1381806207563,2.07306
1381806267563,2.08525
1381806327563,2.07942
1381806387563,2.06062
1381806447563,2.09710
1381806507563,2.08514
1381806567563,2.07301
1381806627563,2.06385
1381806687563,2.03861
1381807227563,2.07769
1381807287563,2.02528
1381807347563,2.07386
1381807407563,2.08263
1381807467563,2.06916
1381807527563,2.08285
1381807587563,2.08096
1381807647563,2.10439
1381807707563,2.07571
1381807767563,2.08755
1381807827563,2.09375
1381807887563,2.09117
1381807947563,2.11474
1381808007563,2.06351
1381808067563,2.08179
1381808127563,2.09116
1381808187563,2.11664
1381808247563,2.07795
1381808307563,2.09987
1381808367563,2.10975
1381808427563,2.10246
1381808487563,2.10157
1381808547563,2.11545
1381808607563,2.10565
1381808667563,2.09669
1381808727563,2.12375
1381808787563,2.11456
1381808847563,2.10326
1381808907563,2.12858
1381808967563,2.13797
1381809027563,2.11111
1381809087563,2.13093
1381809147563,2.13007
1381809207563,2.14345
1381809267563,2.15532
1381809327563,2.16441
1381809387563,2.12450
1381809447563,2.16402
1381809507563,2.14503
1381809567563,2.12855
1381809627572,2.11250
1381809687572,2.15905
1381809747572,2.12712
1381809807572,2.15245
1381809867572,2.17104
1381809927572,2.17576
1381809987572,2.15473
1381810047572,2.13575
1381810107572,2.18425
1381810167572,2.16903
1381810227572,2.13332
1381810287572,2.13994
1381810347572,2.15768
1381810407572,2.13666
1381810467572,2.15276
1381810527572,2.14476
1381810587572,2.14225
1381810647572,2.13808
1381810707572,2.16089
1381810767572,2.14052
1381810827572,2.16681
1381810887572,2.11391
1381810947572,2.16969
1381811007572,2.17463
1381811067572,2.16316
1381811127572,2.14587
1381811187572,2.15167
1381811247572,2.13754
1381811307572,2.13564
1381811367572,2.15499
1381811427572,2.14800
1381811487572,2.14880
1381811547572,2.15935
1381811607572,2.14529
1381811667572,2.15319
1381811727572,2.13059
1381811787572,2.12971
1381811847572,2.15168
1381811907572,2.14654
1381811967572,2.13836
1381812027572,2.15441
1381812087572,2.13931
1381812147572,2.13277
1381812207572,2.11242
1381812267572,2.14272
1381812327572,2.11189
1381812387572,2.16831
1381812447572,2.12032
1381812507572,2.13108
1381812567572,2.12948
1381812627572,2.11811
1381812687572,2.13804
1381812747572,2.13595
1381812807572,2.12690
1381812867572,2.12507
1381812927572,2.14536
1381812987572,2.14340
1381813047572,2.13676
1381813107572,2.12385
1381813167572,2.10909
1381813227582,2.10982
1381813287582,2.11381
1381813347582,2.11821
1381813407582,2.11456
1381813467582,2.11061
1381813527582,2.16209
1381813587582,2.19465
1381813647582,2.17759
1381813707582,2.17388
1381813767582,2.22449
1381813827582,2.16189
1381813887582,2.16526
1381813947582,2.14835
1381814007582,2.16440
1381814067582,2.14784
1381814127582,2.16618
1381814187582,2.14689
1381814247582,2.14051
1381814307582,2.15331
1381814367582,2.15828
1381814427582,2.14313
1381814487582,2.13325
1381814547582,2.14983
1381814607582,2.13589
1381814667582,2.15846
1381814727582,2.16341
1381814787582,2.17974
1381814847582,2.16140
1381814907582,2.16483
1381814967582,2.18587
1381815027582,2.18430
1381815087582,2.15996
1381815147582,2.19733
1381815207582,2.18815
1381815267582,2.19304
1381815327582,2.17056
1381815387582,2.17065
1381815447582,2.19601
1381815507582,2.20830
1381815567582,2.19896
1381815627582,2.20374
1381815687582,2.22206
1381815747582,2.20382
1381815807582,2.23096
1381815867582,2.20652
1381815927582,2.22382
1381815987582,2.19539
1381816047582,2.21019
1381816107582,2.21057
1381816167582,2.23803
1381816227582,2.21185
1381816287582,2.22732
1381816347582,2.22085
1381816407582,2.24398
1381816467582,2.21048
1381816527582,2.21793
1381816587582,2.23915
1381816647582,2.23006
1381816707582,2.21429
1381816767582,2.19907
1381816827591,2.19503
1381816887591,2.18691
1381816947591,2.19303
1381817007591,2.20931
1381817067591,2.14920
1381817127591,2.17404
1381817187591,2.17576
1381817247591,2.16041
1381817307591,2.16258
1381817367591,2.14976
1381817427591,2.15774
1381817487591,2.13259
1381817547591,2.14761
1381817607591,2.15674
1381817667591,2.15053
1381817727591,2.15830
1381817787591,2.15116
1381817847591,2.18175
1381817907591,2.17598
1381817967591,2.16477
1381818027591,2.12916
1381818087591,2.14995
1381818147591,2.15110
1381818207591,2.13852
1381818267591,2.14903
1381818327591,2.14220
1381818387591,2.17456
1381818447591,2.15926
1381818507591,2.17378
1381818567591,2.14013
1381818627591,2.16340
1381818687591,2.16555
1381818747591,1.99721
1381818807591,2.17790
1381818867591,2.17043
1381818927591,2.16909
1381818987591,2.18191
1381819047591,2.13969
1381819107591,2.14605
1381819167591,2.16134
1381819227591,2.13315
1381819287591,2.13672
1381819347591,2.16748
1381819407591,2.14272
1381819467591,2.15338
1381819527591,2.17224
1381819587591,2.15355
1381819647591,2.13623
1381819707591,2.10898
1381819767591,2.16427
1381819827591,2.15172
1381819887591,2.15750
1381819947591,2.14956
1381820007591,2.15673
1381820067591,2.12551
1381820127591,2.15788
1381820187591,2.14115
1381820247591,2.11042
1381820307591,2.15158
1381820367591,2.14090
1381820427601,2.15155
1381820487601,2.14504
1381820547601,2.13504
1381820607601,2.21480
1381820667601,2.15923
1381820727601,2.18167
1381820787601,2.17146
1381820847601,2.16164
1381820907601,2.13169
1381820967601,2.13719
1381821027601,2.13185
1381821087601,2.13545
1381821147601,2.14601
1381821207601,2.18955
1381821267601,2.12824
1381821327601,2.14041
1381821387601,2.14208
1381821447601,2.14713
1381821507601,2.13984
1381821567601,2.14188
1381821627601,2.16126
1381821687601,2.18416
1381821747601,2.13544
1381821807601,2.15936
1381821867601,2.17323
1381821927601,2.15008
1381821987601,2.13344
1381822047601,2.10028
1381822107601,2.19625
1381822167601,2.11685
1381822227601,2.15145
1381822287601,2.12696
1381822347601,2.12193
1381822407601,2.15574
1381822467601,2.14166
1381822527601,2.11724
1381822587601,2.15122
1381822647601,2.12662
1381822707601,2.14114
1381822767601,2.12824
1381822827601,2.13460
1381822887601,2.15431
1381822947601,2.12745
1381823007601,2.13011
1381823067601,2.13086
1381823127601,2.14464
1381823187601,2.13689
1381823247601,2.17813
1381823307601,2.15817
1381823367601,2.16096
1381823427601,2.15139
1381823487601,2.13257
1381823547601,2.12884
1381823607601,2.13484
1381823667601,2.12076
1381823727601,2.13692
1381823787601,2.17403
1381823847601,2.13216
1381823907601,2.14583
1381823967601,2.15990
1381824027610,2.15289
1381824087610,2.13578
1381824147610,2.15026
1381824207610,2.15349
1381824267610,2.13760
1381824327610,2.17777
1381824387610,2.15927
1381824447610,2.18054
1381824507610,2.15041
1381824567610,2.15220
1381824627610,2.17655
1381824687610,2.17801
1381824747610,2.15958
1381824807610,2.17677
1381824867610,2.20581
1381824927610,2.21968
1381824987610,2.18849
1381825047610,2.19396
1381825107610,2.19625
1381825167610,2.19665
1381825227610,2.18754
1381825287610,2.15322
1381825347610,2.18359
1381825407610,2.15559
1381825467610,2.13717
1381825527610,2.15899
1381825587610,2.16682
1381825647610,2.14154
1381825707610,2.15908
1381825767610,2.15762
1381825827610,2.14605
1381825887610,2.17314
1381825947610,2.14965
1381826007610,2.17556
1381826067610,2.15380
1381826127610,2.16541
1381826187610,2.16086
1381826247610,2.22256
1381826307610,2.25679
1381826367610,2.28714
1381826427610,2.35054
1381826487610,2.34614
1381826547610,2.27256
1381826607610,2.23833
1381826667610,2.23214
1381826727610,2.22984
1381826787610,2.23550
1381826847610,2.23093
1381826907610,2.20561
1381826967610,2.25749
1381827027610,2.20848
1381827087610,2.21371
1381827147610,2.21750
1381827207610,2.23317
1381827267610,2.19332
1381827327610,2.19874
1381827387610,2.21706
1381827447610,2.25088
1381827507610,2.24030
1381827567610,2.25927
1381827627620,2.24659
1381827687620,2.20673
1381827747620,2.24336
1381827807620,2.23396
1381827867620,2.24932
1381827927620,2.25326
1381827987620,2.22018
1381828047620,2.28020
1381828107620,2.26137
1381828167620,2.25953
1381828227620,2.24896
1381828287620,2.20982
1381828347620,2.25228
1381828407620,2.26802
1381828467620,2.27698
1381828527620,2.28293
1381828587620,2.31578
1381828647620,2.27365
1381828707620,2.27406
1381828767620,2.28936
1381828827620,2.27682
1381828887620,2.31087
1381828947620,2.24953
1381829007620,2.28872
1381829067620,2.30253
1381829127620,2.29529
1381829187620,2.29824
1381829247620,2.29783
1381829307620,2.26893
1381829367620,2.29311
1381829427620,2.29729
1381829487620,2.29885
1381829547620,2.30139
1381829607620,2.27883
1381829667620,2.27878
1381829727620,2.33259
1381829787620,2.24288
1381829847620,2.24656
1381829907620,2.25786
1381829967620,2.25513
1381830027620,2.24663
1381830087620,2.24906
1381830147620,2.21254
1381830207620,2.25307
1381830267620,2.25317
1381830327620,2.22545
1381830387620,2.22117
1381830447620,2.25685
1381830507620,2.24030
1381830567620,2.24626
1381830627620,2.21618
1381830687620,2.21729
1381830747620,2.20931
1381830807620,2.20074
1381830867620,2.19175
1381830927620,2.19377
1381830987620,2.18597
1381831047620,2.22527
1381831107620,2.19143
1381831167620,2.18626
1381831227630,2.18189
1381831287630,2.19217
1381831347630,2.16585
1381831407630,2.17132
1381831467630,2.16174
1381831527630,2.15936
1381831587630,2.16188
1381831647630,2.17446
1381831707630,2.15818
1381831767630,2.18207
1381831827630,2.14794
1381831887630,2.16750
1381831947630,2.12724
1381832007630,2.16969
1381832067630,2.15476
1381832127630,2.13736
1381832187630,2.17326
1381832247630,2.14788
1381832307630,2.15465
1381832367630,2.14097
1381832427630,2.15408
1381832487630,2.13913
1381832547630,2.17339
1381832607630,2.14330
1381832667630,2.13012
1381832727630,2.15568
1381832787630,2.15038
1381832847630,2.15045
1381832907630,2.17606
1381832967630,2.17380
1381833027630,2.16753
1381833087630,2.17956
1381833147630,2.15720
1381833207630,2.17512
1381833267630,2.16951
1381833327630,2.15269
1381833387630,2.15416
1381833447630,2.17478
1381833507630,2.18943
1381833567630,2.17609
1381833627630,2.16041
1381833687630,2.19123
1381833747630,2.15991
1381833807630,2.20913
1381833867630,2.18024
1381833927630,2.17889
1381833987630,2.18334
1381834047630,2.18712
1381834107630,2.16172
1381834167630,2.20004
1381834227630,2.16860
1381834287630,2.18719
1381834347630,2.18469
1381834407630,2.19692
1381834467630,2.19029
1381834527630,2.19203
1381834587630,2.19530
1381834647630,2.16738
1381834707630,2.16671
1381834767630,2.18648
1381834827640,2.14979
1381834887640,2.16389
1381834947640,2.17281
1381835007640,2.14944
1381835067640,2.17115
1381835127640,2.19360
1381835187640,2.21196
1381835247640,2.20325
1381835307640,2.17905
1381835367640,2.17077
1381835427640,2.19826
1381835487640,2.12311
1381835547640,2.15966
1381835607640,2.15009
1381835667640,2.23390
1381835727640,2.21291
1381835787640,2.17183
1381835847640,2.20945
1381835907640,2.19418
1381835967640,2.18227
1381836027640,2.19744
1381836087640,2.18748
1381836147640,2.18427
1381836207640,2.21832
1381836267640,2.21427
1381836327640,2.17343
1381836387640,2.19798
1381836447640,2.19405
1381836507640,2.17469
1381836567640,2.16407
1381836627640,2.17667
1381836687640,2.17905
1381836747640,2.17531
1381836807640,2.18700
1381836867640,2.16573
1381836927640,2.16617
1381836987640,2.18010
1381837047640,2.19605
1381837107640,2.18835
1381837167640,2.19593
1381837227640,2.21388
1381837287640,2.18182
1381837347640,2.18729
1381837407640,2.17155
1381837467640,2.17456
1381837527640,2.17139
1381837587640,2.19782
1381837647640,2.19863
1381837707640,2.19667
1381837767640,2.18672
1381837827640,2.17311
1381837887640,2.18511
1381837947640,2.18398
1381838007640,2.18725
1381838067640,2.17864
1381838127640,2.17988
1381838187640,2.17585
1381838247640,2.18747
1381838307640,2.17991
1381838367640,2.17775
1381838427651,2.22126
1381838487651,2.16114
1381838547651,2.22728
1381838607651,2.16533
1381838667651,2.21436
1381838727651,2.21458
1381838787651,2.20154
1381838847651,2.18902
1381838907651,2.21078
1381838967651,2.19080
1381839027651,2.21287
1381839087651,2.20989
1381839147651,2.22928
1381839207651,2.18095
1381839267651,2.18638
1381839327651,2.22446
1381839387651,2.23329
1381839447651,2.20835
1381839507651,2.21026
1381839567651,2.17428
1381839627651,2.18477
1381839687651,2.19997
1381839747651,2.19568
1381839807651,2.18634
1381839867651,2.20021
1381839927651,2.18755
1381839987651,2.17758
1381840047651,2.22000
1381840107651,2.22109
1381840167651,2.19388
1381840227651,2.22566
1381840287651,2.21578
1381840347651,2.21135
1381840407651,2.19750
1381840467651,2.20225
1381840527651,2.21036
1381840587651,2.22816
1381840647651,2.21010
1381840707651,2.21593
1381840767651,2.21456
1381840827651,2.18105
1381840887651,2.22862
1381840947651,2.19429
1381841007651,2.21680
1381841067651,2.20759
1381841127651,2.21286
1381841187651,2.23365
1381841247651,2.21913
1381841307651,2.21567
1381841367651,2.23155
1381841427651,2.20154
1381841487651,2.22993
1381841547651,2.20614
1381841607651,2.20075
1381841667651,2.23782
1381841727651,2.22915
1381841787651,2.23302
1381841847651,2.22887
1381841907651,2.21700
1381841967651,2.22326
1381842027661,2.20376
1381842087661,2.22565
1381842147661,2.21291
1381842207661,2.21874
1381842267661,2.21930
1381842327661,2.18516
1381842387661,2.22308
1381842447661,2.20037
1381842507661,2.19814
1381842567661,2.21095
1381842627661,2.24021
1381842687661,2.21162
1381842747661,2.22547
1381842807661,2.20569
1381842867661,2.23899
1381842927661,2.22906
1381842987661,2.20472
1381843047661,2.20033
1381843107661,2.21581
1381843167661,2.22385
1381843227661,2.22561
1381843287661,2.19877
1381843347661,2.18804
1381843407661,2.23638
1381843467661,2.23144
1381843527661,2.22832
1381843587661,2.22884
1381843647661,2.22788
1381843707661,2.22604
1381843767661,2.21673
1381843827661,2.20411
1381843887661,2.24302
1381843947661,2.25244
1381844007661,2.20064
1381844067661,2.21517
1381844127661,2.23739
1381844187661,2.23000
1381844247661,2.21528
1381844307661,2.24457
1381844367661,2.38338
1381844427661,2.18549
1381844487661,2.20634
1381844547661,2.20315
1381844607661,2.23246
1381844667661,2.22093
1381844727661,2.24503
1381844787661,2.24913
1381844847661,2.21519
1381844907661,2.24605
1381844967661,2.24613
1381845027661,2.23705
1381845087661,2.22951
1381845147661,2.24380
1381845207661,2.22547
1381845267661,2.22895
1381845327661,2.24671
1381845387661,2.26219
1381845447661,2.23985
1381845507661,2.26927
1381845567661,2.23686
1381845627672,2.26059
1381845687672,2.23081
1381845747672,2.27776
1381845807672,2.25818
1381845867672,2.23736
1381845927672,2.25507
1381845987672,2.24731
1381846047672,2.23862
1381846107672,2.23141
1381846167672,2.27529
1381846227672,2.25008
1381846287672,2.28550
1381846347672,2.25771
1381846407672,2.24270
1381846467672,2.26141
1381846527672,2.26669
1381846587672,2.28884
1381846647672,2.26027
1381846707672,2.25497
1381846767672,2.27648
1381846827672,2.26810
1381846887672,2.27750
1381846947672,2.26243
1381847007672,2.26763
1381847067672,2.26283
1381847127672,2.33031
1381847187672,2.29843
1381847247672,2.30175
1381847307672,2.26807
1381847367672,2.27107
1381847427672,2.29996
1381847487672,2.27436
1381847547672,2.29011
1381847607672,2.29205
1381847667672,2.28617
1381847727672,2.25493
1381847787672,2.32801
1381847847672,2.25704
1381847907672,2.27537
1381847967672,2.30548
1381848027672,2.28500
1381848087672,2.29788
1381848147672,2.25351
1381848207672,2.26026
1381848267672,2.28602
1381848327672,2.29504
1381848387672,2.25941
1381848447672,2.28031
1381848507672,2.28923
1381848567672,2.24672
1381848627672,2.29082
1381848687672,2.31387
1381848747672,2.31648
1381848807672,2.29754
1381848867672,2.28192
1381848927672,2.28996
1381848987672,2.27535
1381849047672,2.29687
1381849107672,2.29987
1381849167672,2.30709
1381849227683,2.30683
1381849287683,2.32654
1381849347683,2.30304
1381849407683,2.30652
1381849467683,2.33230
1381849527683,2.30254
1381849587683,2.33800
1381849647683,2.31312
1381849707683,2.30120
1381849767683,2.29099
1381849827683,2.33890
1381849887683,2.35184
1381849947683,2.27173
1381850007683,2.32657
1381850067683,2.31280
1381850127683,2.29172
1381850187683,2.30508
1381850247683,2.28202
1381850307683,2.31163
1381850367683,2.27515
1381850427683,2.28843
1381850487683,2.30926
1381850547683,2.29917
1381850607683,2.29414
1381850667683,2.32903
1381850727683,2.29821
1381850787683,2.30195
1381850847683,2.29411
1381850907683,2.32766
1381850967683,2.30319
1381851027683,2.29215
1381851087683,2.28495
1381851147683,2.32512
1381851207683,2.32485
1381851267683,2.32146
1381851327683,2.34463
1381851387683,2.31890
1381851447683,2.37132
1381851507683,2.34638
1381851567683,2.35186
1381851627683,2.34110
1381851687683,2.33990
1381851747683,2.32910
1381851807683,2.33072
1381851867683,2.36607
1381851927683,2.32100
1381851987683,2.35850
1381852047683,2.31531
1381852107683,2.34071
1381852167683,2.33460
1381852227683,2.35378
1381852287683,2.36189
1381852347683,2.35855
1381852407683,2.33951
1381852467683,2.34375
1381852527683,2.35725
1381852587683,2.36316
1381852647683,2.36334
1381852707683,2.37179
1381852767683,2.39689
1381852827714,2.38085
1381852887714,2.40281
1381852947714,2.38901
1381853007714,2.38177
1381853067714,2.40214
1381853127714,2.38559
1381853187714,2.36831
1381853247714,2.38304
1381853307714,2.31904
1381853367714,2.35040
1381853427714,2.36766
1381853487714,2.33802
1381853547714,2.30493
1381853607714,2.34251
1381853667714,2.33178
1381853727714,2.32325
1381853787714,2.32136
1381853847714,2.32267
1381853907714,2.32275
1381853967714,2.29788
1381854027714,2.31316
1381854087714,2.31949
1381854147714,2.31213
1381854207714,2.32865
1381854267714,2.33015
1381854327714,2.33237
1381854387714,2.29720
1381854447714,2.28693
1381854507714,2.26805
1381854567714,2.29549
1381854627714,2.28973
1381854687714,2.27634
1381854747714,2.31729
1381854807714,2.31476
1381854867714,2.31269
1381854927714,2.31724
1381854987714,2.30073
1381855047714,2.26028
1381855107714,2.32646
1381855167714,2.28345
1381855227714,2.28162
1381855287714,2.29255
1381855347714,2.29544
1381855407714,2.29892
1381855467714,2.29951
1381855527714,2.30458
1381855587714,2.28309
1381855647714,2.30758
1381855707714,2.31407
1381855767714,2.30247
1381855827714,2.26405
1381855887714,2.27291
1381855947714,2.26951
1381856007714,2.25909
1381856067714,2.30413
1381856127714,2.32553
1381856187714,2.29373
1381856247714,2.27090
1381856307714,2.26234
1381856367714,2.29956
1381856427725,2.30007
1381856487725,2.27483
1381856547725,2.25201
1381856607725,2.23303
1381856667725,2.26952
1381856727725,2.23390
1381856787725,2.24412
1381856847725,2.25381
1381856907725,2.26677
1381856967725,2.27049
1381857027725,2.27921
1381857087725,2.21870
1381857147725,2.25885
1381857207725,2.26815
1381857267725,2.23318
1381857327726,2.24644
1381857387726,2.27717
1381857447726,2.27637
1381857507726,2.27444
1381857567726,2.25703
1381857627726,2.24430
1381857687725,2.24643
1381857747725,2.28008
1381857807725,2.24686
1381857867725,2.24599
1381857927725,2.26364
1381857987725,2.24923
1381858047725,2.24153
1381858107725,2.25715
1381858167725,2.24579
1381858227725,2.27396
1381858287725,2.25537
1381858347726,2.24989
1381858407725,2.23552
1381858467725,2.23281
1381858527725,2.21426
1381858587725,2.22244
1381858647725,2.22344
1381858707726,2.21589
1381858767726,2.22010
1381858827726,2.20965
1381858887726,2.21623
1381858947726,2.19435
1381859007726,2.23941
1381859067725,2.19697
1381859127725,2.22085
1381859187725,2.19442
1381859247725,2.22721
1381859307725,2.20023
1381859367725,2.21134
1381859427725,2.19463
1381859487725,2.21041
1381859547725,2.20573
1381859607725,2.22373
1381859667725,2.21890
1381859727725,2.18839
1381859787725,2.21861
1381859847725,2.20034
1381859907725,2.18849
1381859967725,2.19564
1381860027737,2.18159
1381860087737,2.20050
1381860147737,2.16470
1381860207737,2.18412
1381860267737,2.19860
1381860327737,2.16745
1381860387737,2.18085
1381860447737,2.17647
1381860507737,2.19110
1381860567737,2.19189
1381860627737,2.20596
1381860687737,2.19179
1381860747737,2.19325
1381860807737,2.18945
1381860867737,2.21573
1381860927737,2.19708
1381860987737,2.21779
1381861047737,2.19821